Theta_e
299 299 299 299 298 299 298 297 297 298 298 298 298 299 298 299 299 301 302 301 299 300 301 301 302 304 304 303 306 306 306 303 305 312 315 307 309 310 309 309 310 312 312 313 310 311 316 305 308 311 308 301 301 303
298 299 299 298 297 297 297 297 297 297 298 298 298 298 299 299 300 302 302 302 300 300 301 302 302 305 305 304 305 305 308 305 307 307 306 306 307 307 308 311 306 310 309 310 312 312 306 305 304 303 300 300 299 299
297 297 298 297 297 296 296 296 297 296 297 298 298 299 299 300 299 302 301 302 300 297 302 304 304 305 306 306 306 307 303 304 304 303 304 305 307 304 306 305 305 304 306 307 307 306 303 302 302 300 299 299 298 298
297 297 298 297 297 296 296 296 296 296 296 297 297 298 299 300 298 300 300 300 301 301 303 303 303 304 303 305 305 303 301 301 302 302 303 303 305 303 304 305 305 305 305 306 306 306 302 301 300 299 299 298 298 297
297 297 298 297 297 297 296 296 296 296 296 297 297 298 298 299 299 298 299 299 300 300 302 301 301 299 303 305 305 304 304 304 302 304 304 304 303 303 303 305 306 305 305 307 308 306 302 301 299 299 299 299 299 299
297 297 298 297 297 297 296 296 295 295 297 298 297 297 298 299 298 298 297 299 299 300 299 301 295 299 304 304 304 304 303 302 301 302 302 303 302 303 306 307 305 304 304 302 303 305 300 299 300 300 300 300 299 298
296 296 297 297 296 296 296 295 295 295 297 298 297 296 298 298 298 298 299 298 299 300 300 301 301 298 298 300 300 300 301 301 300 301 301 302 301 302 302 302 302 304 304 300 301 300 300 300 299 299 298 298 298 297
295 296 296 296 296 295 295 295 295 295 297 297 296 296 297 298 298 298 299 299 299 299 299 301 300 301 299 301 301 300 300 300 300 300 300 301 301 299 301 300 303 303 300 300 300 299 299 297 297 297 298 298 298 297
294 295 295 296 295 295 295 295 295 295 297 298 296 296 296 298 296 297 298 298 299 298 299 300 302 301 298 299 299 300 299 301 299 301 301 301 302 302 300 300 300 299 299 298 298 298 299 299 298 298 298 297 296 295
293 293 294 294 295 295 295 296 295 295 297 297 298 293 294 295 298 297 296 297 297 299 299 300 299 300 300 299 300 300 299 300 302 301 299 302 301 301 300 299 299 298 298 298 298 298 298 299 298 297 296 295 294 293
292 292 293 293 294 294 295 295 294 295 296 296 290 286 296 298 295 293 295 297 297 300 300 299 299 300 298 300 300 297 299 299 301 301 301 301 301 300 298 297 297 296 296 295 296 296 296 297 295 294 293 292 291 291
291 292 292 292 293 293 294 294 294 295 295 295 295 296 295 291 294 295 295 298 298 301 299 300 299 298 298 296 299 297 299 300 302 296 299 300 298 298 297 295 294 294 294 294 294 293 293 293 292 291 291 290 289 290
291 291 291 290 292 294 293 294 294 295 296 299 295 294 292 290 292 298 297 299 297 296 297 297 298 296 296 295 297 297 297 298 296 295 299 299 298 296 294 293 292 292 291 291 291 290 290 291 291 290 290 289 289 288
290 291 291 289 294 294 293 294 295 296 298 294 295 290 291 290 296 298 297 296 295 295 296 296 296 297 295 297 297 297 298 297 294 295 298 297 298 295 293 293 292 292 290 290 290 290 288 288 289 289 289 288 287 287
289 291 289 294 294 294 293 293 296 295 295 295 295 291 292 292 290 289 288 290 291 292 293 295 295 295 296 295 297 296 296 295 298 295 294 294 296 294 293 292 291 290 288 290 290 289 288 288 288 288 288 288 288 287
290 290 293 294 294 294 292 294 296 297 294 295 294 292 289 288 285 285 286 290 292 288 291 291 295 292 295 297 298 295 298 297 295 294 291 294 294 293 292 292 292 291 290 290 289 289 288 287 287 287 287 287 287 287
289 290 293 292 290 292 292 296 296 295 295 296 289 282 285 285 284 283 287 291 290 290 292 294 294 295 294 295 297 296 294 294 289 295 295 293 294 293 292 292 292 292 291 290 289 289 288 288 287 286 286 285 286 286
288 290 291 289 290 290 292 296 293 293 297 293 291 285 287 285 284 286 288 292 294 295 295 297 296 297 292 297 295 292 296 294 290 295 291 292 293 293 293 292 292 291 291 290 289 289 288 288 288 287 286 287 287 286
287 287 287 289 290 291 292 294 294 295 292 289 288 288 287 286 287 288 286 290 291 293 293 292 297 295 295 292 291 295 287 289 292 289 289 292 293 292 291 292 291 291 290 290 289 289 289 289 288 287 288 288 287 287
287 287 287 290 291 290 293 294 293 293 293 291 289 291 290 289 287 286 286 286 292 296 294 294 293 292 292 291 292 289 290 291 294 293 290 293 292 292 291 289 289 290 290 290 289 288 287 287 288 288 288 288 288 287
285 289 291 292 292 291 291 293 293 293 291 294 291 292 291 292 293 288 289 288 287 289 292 291 289 287 290 288 287 290 291 292 290 291 291 289 288 290 290 289 289 288 287 288 288 287 288 287 289 290 289 289 289 288
286 289 290 292 290 291 291 290 292 292 292 291 292 291 292 293 295 295 293 295 292 290 289 289 289 289 291 293 290 291 292 292 290 288 289 288 288 289 291 288 288 288 288 288 288 287 288 289 290 290 289 289 288 288
285 288 290 291 292 289 289 290 291 292 295 294 293 295 291 289 289 290 292 290 288 286 285 286 291 293 292 293 294 294 294 294 293 293 291 291 291 290 290 290 292 291 290 291 291 291 290 290 291 290 289 289 288 287
285 289 288 289 291 286 290 290 291 292 292 294 295 294 293 290 290 292 293 290 292 290 289 289 288 291 291 292 291 291 291 293 292 291 292 292 292 292 292 291 291 292 292 293 292 292 291 290 290 289 288 287 286 286
288 284 285 287 286 290 289 290 291 292 289 291 292 289 289 291 290 288 291 289 287 287 287 289 290 289 287 288 289 289 286 289 289 291 292 292 291 291 292 293 292 293 293 292 292 292 292 291 289 289 288 287 286 286
282 279 285 282 281 287 288 288 288 287 288 287 289 290 289 287 287 286 289 279 285 284 284 285 286 285 286 285 285 285 285 285 288 290 290 291 292 292 293 292 291 290 292 293 293 292 292 291 290 289 288 287 286 286
282 280 286 287 288 290 287 289 290 288 286 285 286 285 284 283 283 282 280 281 282 279 282 283 283 283 283 282 283 282 283 284 284 285 285 286 288 290 291 291 291 291 292 291 292 292 291 291 290 289 288 287 287 286
282 282 282 281 284 286 284 287 289 287 285 288 287 285 285 284 283 280 280 280 281 282 282 282 282 282 282 282 282 282 282 282 282 283 285 286 286 287 288 290 290 290 290 290 290 290 290 290 290 289 288 287 286 286
278 280 284 284 284 286 284 284 286 288 287 287 285 284 283 285 280 278 279 281 282 281 275 274 279 281 281 281 282 281 279 279 275 275 275 278 282 284 284 285 287 288 288 289 289 288 288 289 289 288 288 288 287 287
278 281 282 281 283 285 283 283 283 282 284 283 283 283 283 281 279 281 282 281 278 276 277 278 278 279 271 270 268 276 278 279 279 274 272 272 276 281 282 283 284 286 287 286 287 287 287 288 288 288 288 287 287 287
282 282 281 281 281 280 280 279 280 281 280 278 278 280 280 277 278 280 281 280 280 279 277 272 274 277 275 267 263 265 269 278 279 279 279 279 279 280 280 281 282 284 285 286 286 285 285 285 286 286 286 286 287 287
280 280 281 281 280 278 277 276 277 278 278 277 277 274 276 278 279 276 278 278 276 272 274 275 270 274 279 279 279 278 278 278 277 277 277 278 278 278 279 280 281 283 284 285 285 285 284 284 284 284 284 284 284 285
278 279 279 278 278 278 278 276 277 277 276 276 276 275 276 278 279 277 279 279 279 279 280 280 279 279 278 278 278 277 277 276 276 276 276 276 276 276 277 278 279 280 281 282 282 282 283 283 283 283 283 283 283 283
Wind_Speed
37 31 21 14 11 9 9 8 10 12 15 17 21 21 24 31 33 30 23 39 24 9 8 14 17 11 10 14 14 7 4 2 1 7 7 3 2 4 4 7 10 11 10 5 3 2 12 8 13 15 4 2 7 9
33 29 23 18 16 13 11 12 15 16 18 19 23 23 30 33 35 20 7 35 47 6 4 18 31 20 19 23 14 7 4 5 6 3 2 3 2 3 5 6 1 4 5 7 8 7 1 4 2 2 4 6 4 8
29 25 21 19 17 16 13 12 16 22 29 30 29 28 29 26 32 7 5 20 20 2 2 3 11 4 20 20 27 8 2 4 2 2 3 3 4 3 5 4 4 2 3 3 4 3 1 5 4 4 8 7 7 11
27 24 20 18 19 20 19 20 24 27 32 35 31 30 26 24 23 22 9 11 6 2 2 3 4 5 3 17 14 3 6 3 5 2 2 2 3 2 2 2 4 4 8 8 3 2 8 3 5 7 7 9 10 8
26 23 21 19 20 21 23 24 28 33 35 34 25 22 28 28 12 13 17 24 15 2 3 1 1 12 5 13 12 8 6 5 3 3 2 3 3 4 3 2 3 5 6 9 5 10 4 8 6 11 14 13 12 14
29 24 21 20 21 22 24 29 34 39 34 28 18 22 19 27 10 2 4 15 23 12 3 2 1 8 7 11 8 9 4 4 3 3 2 0 2 3 3 3 4 9 5 4 4 17 6 12 9 7 13 11 9 11
28 26 23 21 23 26 27 32 37 44 31 27 19 16 19 19 21 5 2 3 16 9 3 3 2 4 5 5 2 4 4 3 2 2 1 1 1 2 2 3 8 14 10 10 17 17 11 8 7 9 12 9 10 8
26 27 26 25 25 27 30 34 38 46 31 28 20 13 4 8 7 8 18 16 5 4 3 2 1 2 6 3 3 1 2 1 3 2 2 2 2 1 1 4 11 11 13 13 15 13 13 13 11 9 12 12 11 9
23 25 25 26 28 28 30 35 40 45 31 29 19 8 2 6 3 5 14 11 19 4 2 2 2 2 5 3 2 3 3 3 2 2 2 2 2 1 0 8 12 17 10 11 15 17 15 15 13 11 12 10 13 8
26 26 27 26 27 28 30 34 39 43 27 24 12 5 4 3 26 10 4 4 4 4 4 3 3 3 3 3 3 2 2 2 2 2 1 2 2 3 5 6 6 13 15 17 18 9 12 11 11 9 7 7 10 8
25 26 27 27 27 29 29 31 36 38 13 12 4 1 11 19 6 4 4 4 3 3 3 3 5 3 6 4 2 2 1 1 2 1 2 2 1 2 4 8 7 7 8 7 9 8 7 13 12 11 9 8 8 7
26 26 26 26 26 28 30 30 29 21 15 11 12 10 6 4 3 6 3 3 4 3 2 2 2 2 1 1 3 3 2 1 2 1 3 1 2 2 5 6 7 7 9 10 10 11 10 10 9 10 9 7 5 11
25 26 26 25 24 24 30 29 25 25 20 2 3 4 4 4 9 5 5 3 3 3 2 2 2 1 2 3 2 2 4 1 0 3 1 2 4 5 6 7 9 8 9 9 10 8 10 9 12 11 9 10 12 10
24 26 26 24 19 23 27 26 25 23 5 3 4 7 3 4 3 2 2 3 3 2 2 2 2 2 2 3 1 3 1 1 2 2 2 3 7 8 7 7 10 9 8 9 9 9 9 8 9 12 13 14 11 7
23 25 25 14 17 22 25 25 23 8 2 3 3 2 2 1 2 2 2 2 3 2 2 2 2 2 2 3 2 2 3 1 2 3 2 2 10 10 10 8 9 9 6 8 7 8 9 9 8 7 12 13 13 12
22 22 3 12 17 21 23 20 7 4 2 2 3 3 1 3 4 3 3 2 3 2 1 2 2 3 3 2 1 1 2 3 3 3 2 7 9 9 9 9 8 8 8 8 7 7 8 7 7 8 11 10 10 9
19 7 8 16 21 23 17 3 3 2 1 2 2 2 3 2 4 3 1 2 3 2 1 2 2 1 1 2 1 2 3 3 2 2 4 6 10 9 8 9 9 8 9 8 7 10 9 11 13 10 8 8 10 10
7 14 18 19 20 16 5 2 0 1 3 2 2 3 2 3 3 1 1 1 3 2 1 1 1 1 3 2 2 3 2 1 1 4 3 5 7 8 8 9 8 8 7 8 11 12 12 11 8 7 8 12 11 11
21 22 23 18 10 6 2 2 3 2 3 2 1 1 2 1 2 2 2 2 2 2 1 1 1 2 3 2 3 2 2 2 3 2 2 4 6 7 7 7 7 7 7 9 9 6 10 12 10 13 11 13 8 12
19 22 19 12 8 2 3 3 2 2 2 3 1 2 2 2 1 2 1 1 1 1 2 2 3 3 3 3 3 3 2 3 4 4 2 4 4 7 7 6 6 9 9 11 10 13 10 8 10 13 14 15 11 10
10 6 4 9 7 7 2 2 2 3 2 2 2 4 2 1 1 1 2 1 3 2 2 3 3 3 3 2 1 3 4 4 3 3 3 2 1 5 4 7 12 10 3 4 4 4 10 7 13 14 14 18 17 17
6 6 2 6 2 3 3 3 2 1 2 2 2 2 2 2 2 3 3 2 2 3 3 3 2 2 1 2 1 3 4 5 5 3 7 7 3 2 4 5 4 5 5 6 8 6 10 16 17 16 17 18 15 17
5 5 3 4 4 3 5 3 3 4 3 3 3 3 1 2 3 3 2 2 3 1 1 2 1 2 3 3 5 7 7 5 3 3 3 3 3 6 7 11 14 6 4 8 15 13 13 18 17 19 18 18 18 17
7 2 4 4 5 4 1 2 2 2 2 3 3 3 3 3 3 1 2 2 1 1 2 2 2 3 3 4 2 3 2 6 3 1 4 3 2 2 8 10 15 17 18 15 15 14 15 16 20 19 19 18 17 16
4 5 4 5 3 4 4 3 3 3 3 5 6 2 2 2 2 2 3 2 1 1 2 3 4 4 3 2 3 4 14 8 1 2 3 4 1 1 2 8 12 18 21 14 12 13 13 15 17 17 18 18 17 15
5 4 7 5 3 4 4 4 5 5 3 2 3 1 2 2 2 4 3 3 2 2 1 2 3 4 4 4 3 3 5 12 4 2 3 4 8 5 4 4 2 4 18 21 17 15 14 16 18 19 18 21 22 19
3 3 2 2 2 1 1 1 2 2 2 3 3 2 3 2 4 3 1 0 2 2 4 5 6 3 3 2 5 7 8 10 7 3 7 9 7 9 10 7 6 8 12 17 18 17 17 17 16 17 17 19 23 23
2 1 1 3 0 0 3 1 3 4 3 1 3 2 6 5 3 2 2 3 13 15 11 9 8 8 6 4 4 6 7 10 9 7 5 3 7 8 4 5 9 11 11 15 17 16 15 15 16 19 20 20 19 23
2 3 1 2 1 0 2 2 2 1 2 1 3 2 2 1 2 2 1 14 17 14 3 2 2 4 3 2 2 4 5 9 4 4 3 3 3 5 12 10 10 9 11 15 15 15 14 16 18 21 24 23 25 26
3 1 1 1 1 1 1 2 1 2 2 2 2 2 2 2 3 4 14 13 6 3 7 6 4 5 2 2 1 3 6 6 3 4 3 3 2 9 11 12 11 11 10 10 15 13 11 11 12 17 19 19 20 20
3 2 1 1 0 1 2 3 2 1 3 2 2 2 2 1 3 8 5 3 9 7 5 2 2 6 7 3 2 2 2 5 6 6 5 3 4 8 11 12 11 11 14 15 14 13 12 12 13 12 12 12 16 18
3 3 1 1 0 2 3 2 1 2 2 2 2 2 2 2 2 2 12 2 7 3 2 7 4 3 6 3 2 2 4 5 5 5 5 6 7 8 10 12 12 5 12 16 16 16 14 12 11 12 12 12 12 12
2 2 2 1 2 2 3 3 4 2 3 2 2 1 1 2 2 1 4 11 7 5 6 6 7 6 5 5 6 5 4 3 3 3 4 5 6 8 9 8 8 9 8 7 6 4 5 6 7 8 10 11 10 7
Wind_Direction
9 19 34 42 47 44 55 36 20 7 346 333 324 308 309 313 312 283 253 206 200 217 218 218 206 194 188 202 203 173 132 182 169 199 198 155 141 177 136 151 159 166 161 175 138 140 253 170 156 176 187 70 134 150
18 26 38 52 58 53 40 35 20 5 360 349 339 331 325 323 318 289 221 206 199 195 237 217 216 206 205 198 195 173 209 164 157 139 153 129 155 159 152 187 161 188 184 170 188 200 96 240 358 114 142 138 136 119
20 26 33 38 34 26 24 19 7 358 359 351 349 348 338 346 357 11 318 183 166 161 137 183 179 138 219 201 190 175 273 168 204 165 156 139 145 164 164 215 94 321 132 109 113 235 158 127 100 111 135 117 117 123
15 18 20 22 19 15 9 359 353 350 348 349 352 4 353 356 7 40 32 81 107 99 98 29 47 81 141 149 168 88 133 115 123 105 90 108 124 188 175 182 140 182 139 137 36 178 91 162 183 144 96 102 96 94
10 14 13 9 10 9 6 0 353 345 342 347 357 6 2 356 354 343 28 40 32 226 127 64 338 353 158 153 128 105 119 132 113 94 111 167 158 166 155 135 164 182 164 176 195 178 120 174 141 138 123 120 118 115
2 6 10 9 3 359 358 357 353 352 347 353 356 355 21 11 11 51 20 0 7 16 89 70 307 351 74 169 146 135 113 47 70 110 114 162 335 72 119 207 193 177 160 138 156 169 162 130 125 119 117 118 114 114
358 359 359 1 1 359 355 354 353 354 348 347 340 351 34 20 30 54 75 284 1 357 66 90 61 4 348 40 35 60 60 92 92 94 80 119 84 84 180 206 181 171 158 132 127 121 100 121 135 116 115 103 97 84
355 354 350 349 352 353 352 351 350 354 348 347 337 335 338 25 50 20 4 8 7 91 61 82 62 59 2 37 79 45 75 57 43 95 72 56 62 251 4 321 141 155 126 139 138 136 131 118 106 100 115 118 105 103
338 346 347 343 343 343 345 350 348 351 349 347 338 332 332 26 8 313 324 344 45 68 84 53 28 56 346 30 59 44 35 52 3 55 63 136 297 28 115 126 127 134 135 125 107 110 118 122 124 125 120 115 115 113
338 334 338 343 340 337 338 345 347 348 347 349 360 26 348 304 322 327 17 23 36 17 35 33 352 55 18 13 49 62 30 46 47 22 342 55 28 340 12 89 102 124 125 124 111 109 119 125 131 130 127 123 125 132
332 333 332 332 338 340 339 341 346 349 355 359 10 311 303 326 3 25 25 45 358 34 18 3 15 51 1 47 72 28 100 353 85 337 89 97 316 351 26 72 69 86 93 62 94 102 123 141 142 133 124 122 127 130
325 329 329 329 330 333 337 339 345 351 330 289 281 301 308 17 23 60 4 2 36 32 14 10 5 70 287 35 78 351 86 30 80 336 66 90 271 129 98 83 72 77 89 81 90 107 110 113 118 119 121 120 115 115
320 323 325 327 329 332 336 336 340 341 338 345 14 3 37 326 35 37 6 8 20 357 343 37 28 4 9 32 70 61 66 45 134 44 162 209 143 120 110 101 80 71 81 87 83 81 95 100 108 119 114 108 109 112
318 318 319 322 327 336 337 334 337 339 353 57 17 4 77 358 46 15 343 295 292 293 54 26 47 58 333 50 358 73 338 72 59 64 236 178 162 140 126 120 117 114 109 109 111 110 110 113 104 103 115 122 125 127
317 315 317 315 327 334 337 331 331 327 57 52 58 31 32 251 251 255 258 324 321 302 358 30 46 61 11 67 30 94 38 20 199 227 233 168 153 146 142 137 130 127 123 118 114 110 105 102 106 102 126 135 134 135
319 318 324 323 327 327 335 329 324 322 31 91 92 92 344 54 316 352 346 344 352 332 355 48 66 50 1 108 89 198 160 203 247 216 188 142 141 139 138 141 136 137 131 125 113 117 120 120 128 129 129 137 155 165
316 245 303 328 330 325 332 313 318 312 264 158 256 139 143 146 187 214 180 295 316 45 58 68 61 38 81 37 292 185 204 230 207 128 133 146 147 148 142 139 142 148 126 134 134 141 145 143 137 147 161 169 162 177
270 283 300 319 332 332 308 239 243 247 253 184 167 225 199 163 161 264 210 23 33 21 33 32 257 168 179 200 260 242 220 341 118 144 144 128 132 137 143 142 145 133 138 142 149 153 149 154 161 176 182 169 161 166
282 295 299 300 306 310 306 272 157 251 237 215 208 158 140 217 232 153 142 195 201 211 37 50 200 215 235 220 203 217 241 195 142 146 109 124 136 144 134 124 131 149 152 153 151 162 167 178 184 180 183 176 168 174
284 288 285 281 213 222 263 256 167 203 232 225 90 162 166 193 203 136 120 356 258 138 4 219 217 224 196 223 193 185 164 133 119 104 109 123 123 120 130 138 153 162 159 158 158 160 160 174 199 195 193 181 161 172
295 287 266 187 190 219 268 267 247 213 202 195 172 146 184 138 128 121 163 140 58 200 239 222 231 256 257 264 179 117 127 130 144 140 153 108 145 127 142 152 153 151 148 163 165 168 172 188 192 195 195 193 192 178
249 279 234 199 205 215 247 222 215 214 174 204 122 157 140 164 178 201 133 156 215 227 204 195 211 174 83 59 60 93 126 109 103 89 93 113 114 123 149 163 153 168 170 180 178 181 197 204 204 197 188 187 181 173
288 229 231 226 216 203 252 148 190 191 198 202 133 171 209 196 207 121 171 208 229 261 278 225 211 123 130 123 111 94 92 101 107 115 122 137 162 170 158 168 180 179 185 198 195 195 196 208 204 195 187 177 169 168
208 245 201 214 200 234 200 220 221 212 170 183 175 201 187 193 152 166 196 189 116 16 16 349 132 101 75 83 63 61 78 148 139 139 170 149 152 184 198 197 196 196 200 202 192 199 198 191 196 183 176 169 171 171
172 238 166 225 263 187 180 203 191 203 194 194 183 229 223 134 163 178 189 189 108 58 3 23 57 47 90 75 63 53 35 22 46 165 191 206 178 63 236 223 214 215 214 185 181 189 194 193 185 180 179 177 174 177
192 243 174 200 248 171 190 175 189 191 152 147 191 107 75 99 126 235 201 181 128 130 92 67 92 80 59 43 58 33 15 9 2 307 345 271 212 216 222 210 205 225 218 214 199 197 194 191 186 180 182 183 179 177
232 272 234 212 254 242 51 14 93 107 161 161 174 113 96 152 234 248 246 110 121 159 134 110 97 93 106 84 60 33 26 30 31 358 340 343 317 265 239 220 222 229 223 216 206 200 195 189 179 183 187 186 181 183
280 320 174 283 48 339 139 137 147 179 195 202 106 159 167 185 225 213 185 169 140 137 129 117 108 113 118 105 72 39 31 14 354 337 330 5 23 6 338 279 258 256 258 231 218 213 211 205 203 194 189 183 183 190
329 293 7 321 313 228 191 175 186 96 359 117 124 141 162 51 175 137 147 145 150 145 110 101 146 125 120 118 93 87 52 21 54 28 10 324 335 342 347 338 334 310 249 232 221 213 214 218 217 201 193 188 191 190
281 341 11 335 211 210 355 355 13 319 22 71 87 80 54 28 9 106 140 154 149 185 198 190 173 176 176 134 319 3 19 360 310 197 181 245 255 339 338 330 309 282 292 251 217 206 206 209 209 200 188 178 178 181
322 283 137 95 93 292 342 348 342 32 40 52 13 92 123 204 37 50 49 242 210 178 154 152 189 195 166 152 140 111 340 50 51 61 70 60 20 6 358 339 310 277 262 254 239 216 199 188 182 176 171 170 180 188
338 343 318 131 214 319 24 60 29 69 16 54 15 49 27 57 75 338 2 87 122 101 156 165 138 214 195 154 172 147 101 95 75 56 38 24 10 360 358 8 10 311 243 229 216 211 212 211 204 201 201 203 207 209
321 342 2 37 27 29 358 59 26 33 27 44 20 21 47 113 133 243 34 46 70 115 157 147 132 122 120 123 132 130 106 67 30 17 11 12 7 1 356 2 19 33 55 83 104 133 163 187 200 207 210 204 195 195